(124789) = 2001 SS256

Discovered at Socorro on 2001-09-19 by LINEAR.

Orbit

Orbit type: Main Belt

Note: WebGL enabled browser required.

epoch2023-09-13.0
epoch JD2460200.5
perihelion date2022-01-16.96053
perihelion JD2459596.46053
argument of perihelion (°)354.54161
ascending node (°)186.13659
inclination (°)6.24988
eccentricity0.0833449
perihelion distance (AU)2.2119209
Tisserand w.r.t. Jupiter3.5
ΔV w.r.t. Earth (km/sec)9.5
semimajor axis (AU)2.4130351
mean anomaly (°)158.82677
mean daily motion (°/day)0.26294100
aphelion distance (AU)2.614
period (years)3.75
P-vector [x]-0.99986951
P-vector [y]-0.00725639
P-vector [z]-0.01443293
Q-vector [x]0.01120411
Q-vector [y]-0.95512819
Q-vector [z]-0.29598076
absolute magnitude15.94
phase slope0.15
uncertainty0
referenceMPEC 2024-A48
observations used1087
oppositions15
arc length (days)8115
first opposition used2001
last opposition used2023
residual rms (arc-secs)0.70
perturbers coarse indicatorM-v
perturbers precise indicator003Ek
first observation date used2001-09-19.0
last observation date used2023-12-08.0
computer nameMPCLINUX
JD of orbit computation2456700.186040
perihelion JD uncertainty (days)1.0264E-04
argument of perihelion uncertainty (°)4.4216E-05
ascending node uncertainty (°)3.6394E-05
inclination uncertainty (°)6.2648E-06
eccentricity uncertainty 5.4432E-08
perihelion distance uncertainty (AU)1.2859E-07
Minimum Orbit Intersection Distances (in AU)
for orbit epoch: 2460200.5, reference: E2024-A48
Mercury1.79817
Venus1.49381
Earth1.21342
Mars0.56318
Jupiter2.341
Saturn6.60769
Uranus16.2305
Neptune27.2413

Observations

1107 total observations over interval: 2001 09 19.40939 – 2023 12 08.091142
These data are available for download (format description).

Date (UT) J2000 RA J2000 Dec Magn Location Ref
2001 09 19.40939 02 35 48.40 +12 12 05.4 19.9   704 – Lincoln Laboratory ETS, New Mexico MPS 36809
2001 09 19.42364 02 35 48.11 +12 12 02.2 19.8   704 – Lincoln Laboratory ETS, New Mexico MPS 36809
2001 09 19.43795 02 35 47.89 +12 11 57.9 19.7   704 – Lincoln Laboratory ETS, New Mexico MPS 36809
2001 09 19.45222 02 35 47.60 +12 11 53.0 19.9   704 – Lincoln Laboratory ETS, New Mexico MPS 36809
2001 09 21.41399 02 35 13.35 +12 03 07.1 19.8   704 – Lincoln Laboratory ETS, New Mexico MPS 36809
2001 09 21.42823 02 35 13.10 +12 03 03.8 20.0   704 – Lincoln Laboratory ETS, New Mexico MPS 36809
2001 09 21.44248 02 35 12.82 +12 02 59.6 19.9   704 – Lincoln Laboratory ETS, New Mexico MPS 36809
2001 09 21.45674 02 35 12.50 +12 02 55.8 20.1   704 – Lincoln Laboratory ETS, New Mexico MPS 36809
2001 09 21.47100 02 35 12.18 +12 02 51.3 19.9   704 – Lincoln Laboratory ETS, New Mexico MPS 36809
2001 09 26.33915 02 33 20.28 +11 38 42.0 19.8   704 – Lincoln Laboratory ETS, New Mexico MPS 49502
2001 09 26.36834 02 33 19.39 +11 38 33.1 20.0   704 – Lincoln Laboratory ETS, New Mexico MPS 49502
2001 09 26.38293 02 33 19.02 +11 38 28.4 19.7   704 – Lincoln Laboratory ETS, New Mexico MPS 49502
2001 09 26.39753 02 33 18.55 +11 38 23.0 19.8   704 – Lincoln Laboratory ETS, New Mexico MPS 49502
2001 10 14.22288 02 21 42.39 +09 46 32.7 19.0 R 699 – Lowell Observatory-LONEOS MPS 39410
2001 10 14.25098 02 21 41.00 +09 46 21.5   699 – Lowell Observatory-LONEOS MPS 39410
2001 10 14.27915 02 21 39.58 +09 46 08.8   699 – Lowell Observatory-LONEOS MPS 39410
2001 10 14.30737 02 21 38.08 +09 45 57.4   699 – Lowell Observatory-LONEOS MPS 39410
2001 10 17.25222 02 19 09.32 +09 25 02.5 19.3   704 – Lincoln Laboratory ETS, New Mexico MPS 39410
2001 10 17.26823 02 19 08.51 +09 24 55.7 19.5   704 – Lincoln Laboratory ETS, New Mexico MPS 39410
2001 10 17.28422 02 19 07.59 +09 24 49.1 19.4   704 – Lincoln Laboratory ETS, New Mexico MPS 39410
2001 10 17.30020 02 19 06.78 +09 24 42.0 19.5   704 – Lincoln Laboratory ETS, New Mexico MPS 39410
2001 10 17.31655 02 19 05.90 +09 24 33.7 20.0   704 – Lincoln Laboratory ETS, New Mexico MPS 39410
2001 10 18.23377 02 18 18.29 +09 18 00.7 19.1   704 – Lincoln Laboratory ETS, New Mexico MPS 39410
2001 10 18.24969 02 18 17.44 +09 17 53.1 19.1   704 – Lincoln Laboratory ETS, New Mexico MPS 39410
2001 10 18.26560 02 18 16.63 +09 17 46.8 19.3   704 – Lincoln Laboratory ETS, New Mexico MPS 39410
2001 10 18.28152 02 18 15.77 +09 17 41.3 19.9   704 – Lincoln Laboratory ETS, New Mexico MPS 39410
2001 10 18.29741 02 18 14.91 +09 17 33.3 19.5   704 – Lincoln Laboratory ETS, New Mexico MPS 39410
2001 10 18.36115 02 18 11.47 +09 17 05.9 19.7   644 – Palomar Mountain/NEAT MPS 40665
2001 10 18.38442 02 18 10.21 +09 16 55.4 19.9   644 – Palomar Mountain/NEAT MPS 40665
2001 10 18.40559 02 18 09.08 +09 16 46.4 20.0   644 – Palomar Mountain/NEAT MPS 40665
2001 10 20.32206 02 16 27.76 +09 02 56.2 18.9   704 – Lincoln Laboratory ETS, New Mexico MPS 40665
2001 10 20.33866 02 16 26.86 +09 02 49.2 19.6   704 – Lincoln Laboratory ETS, New Mexico MPS 40665
2001 10 20.34394 02 16 26.56 +09 02 46.7 18.3   704 – Lincoln Laboratory ETS, New Mexico MPS 40665
2001 10 20.35515 02 16 25.96 +09 02 42.2 19.5   704 – Lincoln Laboratory ETS, New Mexico MPS 40665
2001 10 20.36028 02 16 25.69 +09 02 39.8 18.8   704 – Lincoln Laboratory ETS, New Mexico MPS 40665
2001 10 20.37663 02 16 24.73 +09 02 33.0 18.4   704 – Lincoln Laboratory ETS, New Mexico MPS 40665
2001 10 20.38801 02 16 24.14 +09 02 27.6 19.5   704 – Lincoln Laboratory ETS, New Mexico MPS 40665
2001 10 20.40953 02 16 22.92 +09 02 18.8 18.9   704 – Lincoln Laboratory ETS, New Mexico MPS 40665
2001 10 23.33707 02 13 44.86 +08 41 06.7 19.1   704 – Lincoln Laboratory ETS, New Mexico MPS 40665
2001 10 23.35346 02 13 43.98 +08 40 59.5 19.2   704 – Lincoln Laboratory ETS, New Mexico MPS 40665
2001 10 23.36985 02 13 43.03 +08 40 53.1 19.2   704 – Lincoln Laboratory ETS, New Mexico MPS 40665
2001 10 23.38625 02 13 42.13 +08 40 45.6 19.0   704 – Lincoln Laboratory ETS, New Mexico MPS 40665
2001 10 23.40266 02 13 41.15 +08 40 38.6 19.2   704 – Lincoln Laboratory ETS, New Mexico MPS 40665
2001 10 24.25475 02 12 55.00 +08 34 31.3 18.4   704 – Lincoln Laboratory ETS, New Mexico MPS 40665
2001 10 24.27128 02 12 54.00 +08 34 23.8 19.0   704 – Lincoln Laboratory ETS, New Mexico MPS 40665
2001 10 24.28783 02 12 53.13 +08 34 16.6 19.3   704 – Lincoln Laboratory ETS, New Mexico MPS 40665
2001 10 24.30437 02 12 52.14 +08 34 09.6 19.0   704 – Lincoln Laboratory ETS, New Mexico MPS 40665
2001 10 24.32092 02 12 51.19 +08 34 02.5 18.9   704 – Lincoln Laboratory ETS, New Mexico MPS 40665
2001 10 25.23662 02 12 01.12 +08 27 27.2 18.8   704 – Lincoln Laboratory ETS, New Mexico MPS 40665
2001 10 25.25327 02 12 00.19 +08 27 21.1 19.2   704 – Lincoln Laboratory ETS, New Mexico MPS 40665
2001 10 25.27013 02 11 59.21 +08 27 13.2 18.5   704 – Lincoln Laboratory ETS, New Mexico MPS 40665
2001 10 25.28684 02 11 58.26 +08 27 05.6 19.0   704 – Lincoln Laboratory ETS, New Mexico MPS 40665
2001 10 25.28951 02 11 58.16 +08 27 04.7 19.8   644 – Palomar Mountain/NEAT MPS 40665
2001 10 25.30345 02 11 57.35 +08 26 58.8 19.4   704 – Lincoln Laboratory ETS, New Mexico MPS 40665
2001 10 25.31512 02 11 56.70 +08 26 53.9 19.3   644 – Palomar Mountain/NEAT MPS 40665
2001 10 25.33771 02 11 55.43 +08 26 43.5 20.3   644 – Palomar Mountain/NEAT MPS 40665
2001 11 18.22072 01 51 54.88 +05 58 50.3 19.0   704 – Lincoln Laboratory ETS, New Mexico MPS 41969
2001 11 18.23562 01 51 54.26 +05 58 46.5 19.5   704 – Lincoln Laboratory ETS, New Mexico MPS 41969
2001 11 18.25052 01 51 53.55 +05 58 41.7 19.3   704 – Lincoln Laboratory ETS, New Mexico MPS 41969
2001 11 18.26541 01 51 53.01 +05 58 38.7 19.4   704 – Lincoln Laboratory ETS, New Mexico MPS 41969
2001 11 18.28034 01 51 52.40 +05 58 34.7 19.3   704 – Lincoln Laboratory ETS, New Mexico MPS 41969
2003 02 09.47759 11 26 27.83 -01 36 52.6 19.9   608 – Haleakala-AMOS MPS 74019
2003 02 09.48816 11 26 27.56 -01 36 50.0 19.8   608 – Haleakala-AMOS MPS 74019
2003 02 09.49867 11 26 27.25 -01 36 47.2 19.6   608 – Haleakala-AMOS MPS 74019
2003 03 06.30705 11 09 30.18 +01 16 21.8 18.0 R 699 – Lowell Observatory-LONEOS MPS 74019
2003 03 06.32192 11 09 29.37 +01 16 30.1   699 – Lowell Observatory-LONEOS MPS 74019
2003 03 06.33678 11 09 28.67 +01 16 37.9   699 – Lowell Observatory-LONEOS MPS 74019
2003 03 06.35168 11 09 27.75 +01 16 46.2   699 – Lowell Observatory-LONEOS MPS 74019
2003 03 07.30473 11 08 39.82 +01 25 17.6 19.0   704 – Lincoln Laboratory ETS, New Mexico MPS 74019
2003 03 07.31865 11 08 39.11 +01 25 23.4 18.5   704 – Lincoln Laboratory ETS, New Mexico MPS 74019
2003 03 07.34087 11 08 37.94 +01 25 34.3 18.6   704 – Lincoln Laboratory ETS, New Mexico MPS 74019
2003 03 07.35392 11 08 37.24 +01 25 41.5 18.7   704 – Lincoln Laboratory ETS, New Mexico MPS 74019
2003 03 07.36831 11 08 36.45 +01 25 49.4 18.5   704 – Lincoln Laboratory ETS, New Mexico MPS 74019
2003 03 09.25052 11 07 01.89 +01 42 45.9 17.9   704 – Lincoln Laboratory ETS, New Mexico MPS 74019
2003 03 09.26370 11 07 01.18 +01 42 52.8 17.9   704 – Lincoln Laboratory ETS, New Mexico MPS 74019
2003 03 09.27679 11 07 00.52 +01 42 59.4 18.1   704 – Lincoln Laboratory ETS, New Mexico MPS 74019
2003 03 09.29021 11 06 59.85 +01 43 05.9 18.5   704 – Lincoln Laboratory ETS, New Mexico MPS 74019
2003 03 09.30336 11 06 59.13 +01 43 14.0 18.1   704 – Lincoln Laboratory ETS, New Mexico MPS 74019
2003 03 26.13664 10 54 08.85 +04 12 28.1 18.6   644 – Palomar Mountain/NEAT MPS 75935
2003 03 26.13895 10 54 08.74 +04 12 29.2 18.4   644 – Palomar Mountain/NEAT MPS 75935
2003 03 26.15757 10 54 08.02 +04 12 38.4 18.6   644 – Palomar Mountain/NEAT MPS 75935
2003 03 26.15996 10 54 07.90 +04 12 39.7 18.4   644 – Palomar Mountain/NEAT MPS 75935
2003 03 26.17866 10 54 07.17 +04 12 48.9 18.5   644 – Palomar Mountain/NEAT MPS 75935
2003 03 26.18107 10 54 07.06 +04 12 50.0 18.4   644 – Palomar Mountain/NEAT MPS 75935
2003 03 26.20609 10 54 06.00 +04 13 03.0 18.5 R 699 – Lowell Observatory-LONEOS MPS 75935
2003 03 26.22223 10 54 05.29 +04 13 10.1   699 – Lowell Observatory-LONEOS MPS 75935
